CW4713 Weather Reports


Display with metric or nautical units.
time (UTC)temp
F
wind
direction
speed
MPH
gust
MPH
rain 1hr
in
rain 24hr
in
rain mn
in
humidity
%
barometer
mb
20260509182804 38 334 2.0 5.0 0.01 0.36 0.29 96 992.8
20260509182306 38 339 2.0 6.0 0.01 0.36 0.29 96 992.8
20260509181804 38 334 4.0 5.0 0.01 0.36 0.29 96 992.8
20260509181304 38 347 2.0 3.0 0.01 0.36 0.29 96 992.7
20260509180803 38 328 3.0 5.0 0.01 0.36 0.29 96 992.7
20260509180304 38 2 2.0 5.0 0.01 0.36 0.29 96 992.7
20260509175804 38 6 2.0 2.0 0.01 0.36 0.29 96 992.6
20260509175306 38 330 1.0 2.0 0.01 0.36 0.29 96 992.7
20260509174804 38 346 2.0 5.0 0.01 0.36 0.29 96 992.7
20260509174304 38 349 3.0 5.0 0.01 0.36 0.29 96 992.7
20260509173804 37 351 2.0 6.0 0.01 0.36 0.29 96 992.7
20260509173304 37 350 0.0 2.0 0.00 0.35 0.28 96 992.7
20260509172804 37 10 2.0 5.0 0.00 0.35 0.28 96 992.7
20260509172306 37 4 2.0 5.0 0.00 0.35 0.28 95 992.8
20260509171804 37 0 1.0 2.0 0.00 0.35 0.28 96 992.8
20260509171304 37 28 1.0 2.0 0.00 0.35 0.28 96 993.0
20260509170805 37 76 1.0 2.0 0.00 0.35 0.28 96 993.0
20260509170304 37 9 1.0 2.0 0.01 0.35 0.28 95 993.0
20260509165804 37 50 0.0 1.0 0.01 0.35 0.28 95 993.1
20260509165306 37 22 0.0 2.0 0.01 0.35 0.28 95 993.2
20260509164804 37 3 0.0 2.0 0.01 0.35 0.28 95 993.1
20260509164304 37 42 1.0 2.0 0.01 0.35 0.28 95 993.1
20260509163804 37 28 0.0 1.0 0.01 0.35 0.28 95 993.2
20260509152803 37 284 0.0 0.0 0.02 0.34 0.27 95 993.4
20260509152306 37 284 0.0 1.0 0.03 0.34 0.27 95 993.4
20260509151804 37 3 2.0 3.0 0.03 0.34 0.27 95 993.4
20260509151304 37 5 3.0 5.0 0.03 0.34 0.27 95 993.5
20260509150804 37 359 3.0 5.0 0.04 0.34 0.27 95 993.5
20260509150304 37 359 3.0 5.0 0.03 0.33 0.26 95 993.5
20260509145804 37 359 3.0 5.0 0.04 0.33 0.26 95 993.5
20260509145306 37 5 2.0 6.0 0.05 0.33 0.26 95 993.6
20260509144804 37 344 3.0 5.0 0.05 0.33 0.26 95 993.6
20260509144304 37 10 3.0 6.0 0.04 0.32 0.25 95 993.6
20260509143804 37 355 2.0 6.0 0.05 0.32 0.25 95 993.7
20260509143303 37 10 3.0 6.0 0.05 0.32 0.25 95 993.7
20260509142804 37 18 4.0 7.0 0.06 0.32 0.25 95 993.8
20260509142307 37 357 3.0 7.0 0.05 0.31 0.24 95 993.8
20260509141804 37 15 3.0 5.0 0.06 0.31 0.24 95 993.9
20260509141305 37 5 4.0 6.0 0.06 0.31 0.24 95 994.0
20260509140804 37 8 2.0 5.0 0.06 0.30 0.23 95 994.0
20260509140304 37 21 1.0 5.0 0.06 0.30 0.23 95 994.1
20260509135804 37 7 0.0 2.0 0.05 0.29 0.22 95 994.1
20260509135306 37 20 0.0 1.0 0.04 0.28 0.21 94 994.2
20260509134804 37 8 1.0 2.0 0.05 0.28 0.21 94 994.3
20260509134304 37 52 1.0 2.0 0.05 0.28 0.21 94 994.3
20260509133805 37 28 0.0 0.0 0.05 0.27 0.20 94 994.3
20260509133304 37 29 0.0 1.0 0.05 0.27 0.20 94 994.4
20260509132804 37 17 0.0 1.0 0.05 0.26 0.19 94 994.4
20260509132306 37 55 1.0 2.0 0.05 0.26 0.19 94 994.5
20260509121304 37 10 0.0 2.0 0.02 0.20 0.13 93 995.4
20260509120804 37 38 2.0 2.0 0.03 0.20 0.13 93 995.4
20260509120304 37 14 0.0 2.0 0.03 0.20 0.13 93 995.5
20260509115804 37 356 1.0 3.0 0.03 0.20 0.13 93 995.6
20260509115307 37 39 2.0 3.0 0.02 0.19 0.12 93 995.6
20260509114804 37 17 0.0 0.0 0.03 0.19 0.12 93 995.7
20260509114304 37 17 0.0 0.0 0.03 0.19 0.12 93 995.7
20260509113804 37 17 0.0 1.0 0.03 0.19 0.12 93 995.8
20260509113304 37 42 0.0 1.0 0.02 0.18 0.11 93 995.9
20260509112804 37 24 0.0 2.0 0.02 0.18 0.11 92 996.0
20260509112306 37 162 0.0 0.0 0.02 0.18 0.11 92 996.1
20260509111804 37 162 0.0 0.0 0.03 0.18 0.11 92 996.1
20260509111304 37 162 0.0 0.0 0.03 0.18 0.11 92 996.3
20260509110804 37 162 0.0 0.0 0.02 0.17 0.10 92 996.3
20260509110305 37 162 0.0 0.0 0.03 0.17 0.10 92 996.4
20260509105805 37 162 0.0 0.0 0.03 0.17 0.10 92 996.5
20260509105306 37 162 0.0 0.0 0.03 0.17 0.10 92 996.7
20260509104804 37 162 0.0 0.0 0.02 0.16 0.09 92 996.7
20260509104304 37 162 0.0 0.0 0.03 0.16 0.09 92 996.8
20260509103805 37 162 0.0 0.0 0.03 0.16 0.09 92 996.8
20260509103304 37 162 0.0 0.0 0.03 0.16 0.09 91 996.9
20260509102804 37 162 0.0 0.0 0.03 0.16 0.09 92 996.9
20260509102306 37 162 0.0 0.0 0.04 0.16 0.09 92 997.0
20260509101804 37 162 0.0 0.0 0.03 0.15 0.08 92 997.0
20260509101304 37 162 0.0 0.0 0.03 0.15 0.08 92 997.2
20260509100804 37 162 0.0 1.0 0.03 0.15 0.08 91 997.3
20260509100304 37 180 1.0 2.0 0.03 0.14 0.07 91 997.2
20260509095804 37 174 1.0 2.0 0.03 0.14 0.07 91 997.3
20260509095306 38 175 1.0 2.0 0.04 0.14 0.07 91 997.3
20260509094804 38 193 1.0 2.0 0.04 0.14 0.07 91 997.4
20260509094304 38 140 0.0 0.0 0.03 0.13 0.06 91 997.4
20260509093804 38 141 1.0 2.0 0.03 0.13 0.06 91 997.5
20260509093304 38 144 1.0 2.0 0.04 0.13 0.06 90 997.6
20260509092804 38 116 0.0 0.0 0.04 0.13 0.06 90 997.6
20260509092306 38 116 0.0 0.0 0.03 0.12 0.05 90 997.7
20260509091804 38 116 0.0 0.0 0.04 0.12 0.05 90 997.8
20260509091304 38 116 0.0 0.0 0.04 0.12 0.05 90 997.9
20260509090804 38 116 0.0 0.0 0.05 0.12 0.05 90 998.0
20260509090305 38 116 0.0 0.0 0.04 0.11 0.04 90 998.1
20260509085805 38 116 0.0 2.0 0.04 0.11 0.04 90 998.2
20260509085306 38 135 1.0 2.0 0.03 0.10 0.03 90 998.3
20260509084804 38 121 0.0 1.0 0.03 0.10 0.03 90 998.3
20260509084304 38 59 0.0 0.0 0.04 0.10 0.03 89 998.4
20260509083804 38 59 0.0 0.0 0.04 0.10 0.03 89 998.4
20260509083305 38 59 0.0 0.0 0.04 0.09 0.02 89 998.5
20260509082804 38 59 0.0 0.0 0.04 0.09 0.02 89 998.6
20260509082307 38 59 0.0 0.0 0.04 0.09 0.02 89 998.7
20260509081804 39 59 0.0 1.0 0.03 0.08 0.01 89 998.9
20260509081304 39 45 0.0 2.0 0.03 0.08 0.01 89 998.9
20260509080804 39 49 0.0 2.0 0.02 0.07 0.00 89 999.1
20260509080305 39 54 1.0 2.0 0.03 0.07 0.00 89 999.1
20260509075805 39 3 0.0 3.0 0.03 0.07 0.07 88 999.1
20260509065306 40 40 2.0 3.0 0.02 0.04 0.04 85 999.9
20260509064804 40 39 1.0 3.0 0.02 0.04 0.04 84 999.9
20260509064304 40 58 3.0 5.0 0.03 0.04 0.04 84 1000.0
20260509063804 40 47 1.0 3.0 0.03 0.04 0.04 84 1000.1
20260509063304 40 35 1.0 3.0 0.02 0.03 0.03 83 1000.1
20260509062804 41 50 1.0 3.0 0.03 0.03 0.03 83 1000.1
20260509062306 41 48 2.0 3.0 0.03 0.03 0.03 83 1000.1
20260509061804 41 54 1.0 2.0 0.03 0.03 0.03 82 1000.2
20260509061304 41 57 1.0 3.0 0.03 0.03 0.03 82 1000.2
20260509060805 41 60 2.0 3.0 0.02 0.02 0.02 82 1000.2
20260509060304 42 53 1.0 2.0 0.02 0.02 0.02 81 1000.3
20260509055804 42 178 2.0 3.0 0.02 0.02 0.02 80 1000.3
20260509055306 42 145 3.0 3.0 0.02 0.02 0.02 80 1000.3
20260509054805 42 191 0.0 0.0 0.02 0.02 0.02 79 1000.3
20260509054304 42 191 0.0 1.0 0.01 0.01 0.01 78 1000.4
20260509053804 42 89 0.0 0.0 0.01 0.01 0.01 78 1000.4
20260509053304 43 89 0.0 1.0 0.01 0.01 0.01 77 1000.5
20260509052805 43 64 1.0 3.0 0.00 0.00 0.00 76 1000.4
20260509052307 43 325 0.0 0.0 0.00 0.00 0.00 75 1000.5
20260509051804 43 325 0.0 2.0 0.00 0.00 0.00 75 1000.5
20260509051304 43 310 1.0 3.0 0.00 0.00 0.00 74 1000.5
20260509050804 43 287 0.0 0.0 0.00 0.00 0.00 74 1000.5
20260509050304 43 287 0.0 2.0 0.00 0.00 0.00 74 1000.5
20260509045804 43 317 1.0 3.0 0.00 0.00 0.00 74 1000.6
20260509045306 44 322 0.0 2.0 0.00 0.00 0.00 74 1000.6
20260509044805 44 335 2.0 6.0 0.00 0.00 0.00 73 1000.7
20260509044304 44 350 2.0 5.0 0.00 0.00 0.00 73 1000.8
20260509043804 44 327 3.0 5.0 0.00 0.00 0.00 73 1000.8
20260509043304 44 324 0.0 5.0 0.00 0.00 0.00 73 1000.8
20260509042804 44 9 1.0 5.0 0.00 0.00 0.00 73 1000.8
20260509042306 44 3 1.0 6.0 0.00 0.00 0.00 73 1000.9
20260509041803 44 1 4.0 7.0 0.00 0.00 0.00 73 1001.0
20260509041304 44 342 3.0 6.0 0.00 0.00 0.00 72 1001.1
20260509040804 44 356 3.0 6.0 0.00 0.00 0.00 72 1001.1
20260509040304 45 333 4.0 7.0 0.00 0.00 0.00 72 1001.2
20260509035804 45 296 1.0 5.0 0.00 0.00 0.00 72 1001.2
20260509035306 45 321 4.0 8.0 0.00 0.00 0.00 71 1001.2
20260509034804 45 309 3.0 6.0 0.00 0.00 0.00 70 1001.3
20260509024305 46 313 2.0 5.0 0.00 0.00 0.00 66 1001.8
20260509023804 46 338 1.0 5.0 0.00 0.00 0.00 66 1001.9
20260509023304 46 246 1.0 3.0 0.00 0.00 0.00 66 1001.9
20260509022804 46 273 2.0 3.0 0.00 0.00 0.00 66 1001.9
20260509022306 46 193 1.0 2.0 0.00 0.00 0.00 66 1002.0
20260509021804 46 232 1.0 2.0 0.00 0.00 0.00 66 1002.1
20260509021305 46 281 1.0 2.0 0.00 0.00 0.00 66 1002.2
20260509020804 46 297 1.0 3.0 0.00 0.00 0.00 66 1002.3
20260509020304 46 264 1.0 3.0 0.00 0.00 0.00 66 1002.3
20260509015804 46 294 2.0 6.0 0.00 0.00 0.00 66 1002.4
20260509015306 46 282 2.0 5.0 0.00 0.00 0.00 66 1002.5
20260509014804 46 185 0.0 2.0 0.00 0.00 0.00 66 1002.5
20260509014305 46 249 1.0 6.0 0.00 0.00 0.00 66 1002.6
20260509013805 46 124 0.0 0.0 0.00 0.00 0.00 66 1002.7
20260509002804 47 280 2.0 5.0 0.00 0.00 0.00 64 1003.7
20260509002306 47 238 6.0 8.0 0.00 0.00 0.00 64 1003.6
20260509001804 47 199 2.0 6.0 0.00 0.00 0.00 64 1003.8
20260509001304 46 205 3.0 6.0 0.00 0.00 0.00 64 1003.9
20260509000804 46 118 1.0 3.0 0.00 0.00 0.00 64 1004.0
20260509000304 46 316 2.0 3.0 0.00 0.00 0.00 64 1004.1
20260508235804 46 16 1.0 5.0 0.00 0.00 0.00 64 1004.2
20260508235306 46 167 5.0 7.0 0.00 0.00 0.00 63 1004.3
20260508234804 46 205 3.0 7.0 0.00 0.00 0.00 63 1004.3
20260508234304 46 275 2.0 5.0 0.00 0.00 0.00 63 1004.3
20260508233804 47 235 2.0 6.0 0.00 0.00 0.00 62 1004.4
20260508233304 47 248 1.0 5.0 0.00 0.00 0.00 62 1004.5
20260508232805 47 227 3.0 8.0 0.00 0.00 0.00 61 1004.5
20260508222306 46 279 1.0 2.0 0.00 0.00 0.00 63 1005.1
20260508221804 46 213 2.0 3.0 0.00 0.00 0.00 63 1005.2
20260508221304 46 155 3.0 6.0 0.00 0.00 0.00 63 1005.2
20260508220804 46 175 3.0 6.0 0.00 0.00 0.00 62 1005.2
20260508220305 46 177 4.0 8.0 0.00 0.00 0.00 62 1005.4
20260508215804 46 214 3.0 6.0 0.00 0.00 0.00 62 1005.4
20260508215306 46 192 3.0 5.0 0.00 0.00 0.00 61 1005.4
20260508214804 46 199 2.0 3.0 0.00 0.00 0.00 61 1005.4
20260508214304 46 308 0.0 0.0 0.00 0.00 0.00 60 1005.5
20260508213804 46 308 0.0 1.0 0.00 0.00 0.00 61 1005.5
20260508213304 46 282 0.0 0.0 0.00 0.00 0.00 62 1005.6
20260508212804 46 297 2.0 5.0 0.00 0.00 0.00 62 1005.6
20260508212306 46 296 2.0 5.0 0.00 0.00 0.00 62 1005.7
20260508211803 46 340 2.0 5.0 0.00 0.00 0.00 62 1005.7
20260508211303 46 325 3.0 7.0 0.00 0.00 0.00 62 1005.8
20260508210804 46 356 3.0 7.0 0.00 0.00 0.00 62 1005.8
20260508210304 46 346 1.0 3.0 0.00 0.00 0.00 62 1005.9
20260508205804 46 8 4.0 6.0 0.00 0.00 0.00 62 1005.9
20260508205306 46 47 0.0 2.0 0.00 0.00 0.00 63 1005.9
20260508204804 46 46 2.0 7.0 0.00 0.00 0.00 62 1006.1
20260508204304 46 3 2.0 7.0 0.00 0.00 0.00 62 1006.1
20260508203804 47 310 3.0 8.0 0.00 0.00 0.00 63 1006.3
20260508203304 46 9 5.0 9.0 0.00 0.00 0.00 62 1006.3
20260508202804 46 344 3.0 5.0 0.00 0.00 0.00 64 1006.3
20260508202307 46 345 1.0 5.0 0.00 0.00 0.00 64 1006.5
20260508201804 46 310 1.0 5.0 0.00 0.00 0.00 64 1006.5
20260508201304 46 331 3.0 6.0 0.00 0.00 0.00 65 1006.6
20260508200804 46 332 6.0 9.0 0.00 0.00 0.00 64 1006.6
20260508200304 46 340 6.0 12.0 0.00 0.00 0.00 65 1006.6
20260508195804 46 311 3.0 6.0 0.00 0.00 0.00 66 1006.7
20260508195306 45 344 2.0 6.0 0.00 0.00 0.00 65 1006.7
20260508194804 45 340 3.0 7.0 0.00 0.00 0.00 65 1006.8
20260508194304 45 332 5.0 9.0 0.00 0.00 0.00 65 1006.8
20260508193804 45 351 3.0 9.0 0.00 0.00 0.00 66 1006.9
20260508193304 45 4 5.0 9.0 0.00 0.00 0.00 65 1007.0
20260508192804 45 355 6.0 14.0 0.00 0.00 0.00 66 1007.0
20260508192306 45 354 6.0 14.0 0.00 0.00 0.00 67 1007.1
20260508191804 44 357 7.0 10.0 0.00 0.00 0.00 68 1007.2
20260508191304 44 354 6.0 8.0 0.00 0.00 0.00 68 1007.2
20260508190804 44 355 6.0 10.0 0.00 0.00 0.00 68 1007.3
20260508190303 44 345 7.0 12.0 0.00 0.00 0.00 68 1007.4
20260508185804 44 336 7.0 12.0 0.00 0.00 0.00 69 1007.4
20260508185306 44 354 5.0 9.0 0.00 0.00 0.00 69 1007.4
20260508184804 44 352 5.0 9.0 0.00 0.00 0.00 70 1007.5
20260508184304 44 333 6.0 12.0 0.00 0.00 0.00 70 1007.5
20260508183804 44 340 7.0 9.0 0.00 0.00 0.00 70 1007.6
20260508183304 44 350 7.0 12.0 0.00 0.00 0.00 70 1007.7